When you browse on this site, cookies collect data to enhance your experience and personalize the content and advertising you see.
Visit our Privacy Policy to learn more. By continuing to use the site, you agree to this use of cookies and data.

Hourly Weather Kozyatyn

Today, 7 July, Tuesday

Time Temperature Precipitation Wind Pressure Humidity
00:00 +21°C° 0 mm 1 mps 730 mmHg 79%
01:00 +21°C° 0 mm 1 mps 729 mmHg 81%
02:00 +21°C° 0 mm 1 mps 729 mmHg 85%
03:00 +21°C° 0.4 mm 1 mps 729 mmHg 86%
04:00 +21°C° 0.4 mm 1 mps 729 mmHg 86%
05:00 +21°C° 0.4 mm 1 mps 729 mmHg 87%
06:00 +20°C° 1 mm 2 mps 729 mmHg 86%
07:00 +21°C° 1 mm 3 mps 729 mmHg 84%
08:00 +22°C° 1 mm 4 mps 729 mmHg 83%
09:00 +22°C° 1.2 mm 5 mps 729 mmHg 84%
10:00 +22°C° 1.2 mm 5 mps 729 mmHg 85%
11:00 +21°C° 1.2 mm 6 mps 729 mmHg 86%
12:00 +21°C° 0.2 mm 6 mps 729 mmHg 85%
13:00 +21°C° 0.2 mm 6 mps 730 mmHg 84%
14:00 +21°C° 0.2 mm 6 mps 730 mmHg 83%
15:00 +20°C° 0.1 mm 6 mps 730 mmHg 83%
16:00 +17°C° 0.1 mm 7 mps 730 mmHg 84%
17:00 +16°C° 0.1 mm 8 mps 730 mmHg 84%
18:00 +15°C° 0 mm 8 mps 730 mmHg 80%
19:00 +15°C° 0 mm 7 mps 731 mmHg 76%
20:00 +14°C° 0 mm 7 mps 732 mmHg 73%
21:00 +14°C° 0 mm 7 mps 732 mmHg 72%
22:00 +12°C° 0 mm 7 mps 732 mmHg 72%
23:00 +12°C° 0 mm 7 mps 732 mmHg 72%

Tomorrow, 8 July, Wednesday

Time Temperature Precipitation Wind Pressure Humidity
00:00 +12°C° 0.4 mm 7 mps 733 mmHg 78%
01:00 +13°C° 0.4 mm 6 mps 733 mmHg 85%
02:00 +11°C° 0.4 mm 6 mps 733 mmHg 92%
03:00 +11°C° 0 mm 6 mps 733 mmHg 93%
04:00 +12°C° 0 mm 5 mps 733 mmHg 93%
05:00 +10°C° 0 mm 5 mps 734 mmHg 94%
06:00 +12°C° 0 mm 5 mps 734 mmHg 90%
07:00 +13°C° 0 mm 6 mps 734 mmHg 85%
08:00 +15°C° 0 mm 6 mps 735 mmHg 81%
09:00 +16°C° 0 mm 6 mps 735 mmHg 75%
10:00 +16°C° 0 mm 6 mps 735 mmHg 69%
11:00 +17°C° 0 mm 6 mps 736 mmHg 63%
12:00 +19°C° 0 mm 6 mps 736 mmHg 62%
13:00 +19°C° 0 mm 6 mps 736 mmHg 61%
14:00 +20°C° 0 mm 5 mps 736 mmHg 60%
15:00 +20°C° 0 mm 5 mps 736 mmHg 61%
16:00 +19°C° 0 mm 5 mps 736 mmHg 62%
17:00 +19°C° 0 mm 5 mps 736 mmHg 64%
18:00 +18°C° 0 mm 4 mps 736 mmHg 70%
19:00 +16°C° 0 mm 3 mps 736 mmHg 76%
20:00 +15°C° 0 mm 2 mps 737 mmHg 82%
21:00 +14°C° 0 mm 2 mps 737 mmHg 83%
22:00 +14°C° 0 mm 2 mps 737 mmHg 85%
23:00 +13°C° 0 mm 2 mps 737 mmHg 87%

Day after tomorrow, 9 July, Thursday

Time Temperature Precipitation Wind Pressure Humidity
00:00 +13°C° 0 mm 2 mps 737 mmHg 88%
01:00 +12°C° 0 mm 2 mps 737 mmHg 89%
02:00 +12°C° 0 mm 2 mps 737 mmHg 90%
03:00 +12°C° 0 mm 2 mps 737 mmHg 90%
04:00 +12°C° 0 mm 2 mps 737 mmHg 90%
05:00 +12°C° 0 mm 2 mps 737 mmHg 91%
06:00 +14°C° 0 mm 2 mps 738 mmHg 86%
07:00 +16°C° 0 mm 3 mps 738 mmHg 82%
08:00 +17°C° 0 mm 3 mps 738 mmHg 77%
09:00 +18°C° 0.1 mm 3 mps 738 mmHg 78%
10:00 +18°C° 0.1 mm 4 mps 739 mmHg 78%
11:00 +18°C° 0.1 mm 4 mps 739 mmHg 78%
12:00 +18°C° 0.1 mm 4 mps 739 mmHg 79%
13:00 +18°C° 0.1 mm 4 mps 739 mmHg 81%
14:00 +17°C° 0.1 mm 3 mps 739 mmHg 83%
15:00 +18°C° 0 mm 3 mps 739 mmHg 80%
16:00 +19°C° 0 mm 3 mps 739 mmHg 78%
17:00 +19°C° 0 mm 3 mps 739 mmHg 76%
18:00 +18°C° 0 mm 3 mps 739 mmHg 80%
19:00 +17°C° 0 mm 2 mps 739 mmHg 85%
20:00 +16°C° 0 mm 2 mps 739 mmHg 90%
21:00 +15°C° 0 mm 2 mps 739 mmHg 91%
22:00 +14°C° 0 mm 2 mps 739 mmHg 92%
23:00 +14°C° 0 mm 2 mps 739 mmHg 94%

10 July, Friday

Time Temperature Precipitation Wind Pressure Humidity
00:00 +13°C° 0 mm 1 mps 739 mmHg 94%
01:00 +13°C° 0 mm 1 mps 740 mmHg 94%
02:00 +13°C° 0 mm 1 mps 740 mmHg 94%
03:00 +13°C° 0 mm 1 mps 740 mmHg 93%
04:00 +13°C° 0 mm 1 mps 740 mmHg 93%
05:00 +12°C° 0 mm 0 mps 740 mmHg 93%
06:00 +15°C° 0 mm 1 mps 740 mmHg 87%
07:00 +18°C° 0 mm 1 mps 740 mmHg 81%
08:00 +19°C° 0 mm 2 mps 740 mmHg 75%
09:00 +20°C° 0 mm 2 mps 740 mmHg 70%
10:00 +21°C° 0 mm 2 mps 740 mmHg 65%
11:00 +24°C° 0 mm 2 mps 740 mmHg 59%
12:00 +24°C° 0.1 mm 2 mps 740 mmHg 60%
13:00 +25°C° 0.1 mm 2 mps 740 mmHg 60%
14:00 +26°C° 0.1 mm 3 mps 740 mmHg 61%
15:00 +26°C° 0.1 mm 3 mps 739 mmHg 63%
16:00 +26°C° 0.1 mm 3 mps 739 mmHg 65%
17:00 +26°C° 0.1 mm 3 mps 739 mmHg 67%
18:00 +24°C° 0.1 mm 3 mps 739 mmHg 74%
19:00 +22°C° 0.1 mm 3 mps 738 mmHg 80%
20:00 +20°C° 0.1 mm 3 mps 738 mmHg 87%
21:00 +20°C° 0 mm 3 mps 738 mmHg 88%
22:00 +19°C° 0 mm 4 mps 738 mmHg 89%
23:00 +18°C° 0 mm 4 mps 738 mmHg 90%

11 July, Saturday

Time Temperature Precipitation Wind Pressure Humidity
00:00 +18°C° 0 mm 4 mps 738 mmHg 88%
01:00 +18°C° 0 mm 4 mps 738 mmHg 86%
02:00 +18°C° 0 mm 4 mps 738 mmHg 85%
03:00 +17°C° 0 mm 4 mps 738 mmHg 85%
04:00 +17°C° 0 mm 4 mps 738 mmHg 84%
05:00 +17°C° 0 mm 4 mps 737 mmHg 84%
06:00 +19°C° 0 mm 5 mps 738 mmHg 78%
07:00 +20°C° 0 mm 5 mps 738 mmHg 73%
08:00 +22°C° 0 mm 6 mps 738 mmHg 67%
09:00 +23°C° 0 mm 6 mps 738 mmHg 66%
10:00 +25°C° 0 mm 5 mps 738 mmHg 66%
11:00 +25°C° 0 mm 5 mps 738 mmHg 65%
12:00 +26°C° 0 mm 5 mps 738 mmHg 64%
13:00 +26°C° 0 mm 4 mps 738 mmHg 64%
14:00 +27°C° 0 mm 4 mps 737 mmHg 63%
15:00 +27°C° 0.3 mm 4 mps 737 mmHg 64%
16:00 +27°C° 0.3 mm 4 mps 737 mmHg 65%
17:00 +27°C° 0.3 mm 4 mps 737 mmHg 67%
18:00 +25°C° 1.2 mm 3 mps 736 mmHg 72%
19:00 +24°C° 1.2 mm 3 mps 736 mmHg 78%
20:00 +21°C° 1.2 mm 2 mps 736 mmHg 84%
21:00 +20°C° 1.1 mm 2 mps 736 mmHg 87%
22:00 +19°C° 1.1 mm 2 mps 736 mmHg 90%
23:00 +18°C° 1.1 mm 2 mps 736 mmHg 94%

12 July, Sunday

Time Temperature Precipitation Wind Pressure Humidity
00:00 +17°C° 0.3 mm 2 mps 736 mmHg 94%
01:00 +17°C° 0.3 mm 3 mps 736 mmHg 95%
02:00 +16°C° 0.3 mm 3 mps 736 mmHg 95%
03:00 +15°C° 0.1 mm 4 mps 735 mmHg 95%
04:00 +14°C° 0.1 mm 4 mps 735 mmHg 95%
05:00 +13°C° 0.1 mm 5 mps 735 mmHg 95%
06:00 +13°C° 0.4 mm 6 mps 735 mmHg 95%
07:00 +13°C° 0.4 mm 6 mps 735 mmHg 95%
08:00 +11°C° 0.4 mm 7 mps 736 mmHg 94%
09:00 +11°C° 3.1 mm 7 mps 736 mmHg 95%
10:00 +11°C° 3.1 mm 7 mps 736 mmHg 95%
11:00 +11°C° 3.1 mm 7 mps 737 mmHg 95%
12:00 +11°C° 1.8 mm 6 mps 737 mmHg 95%
13:00 +11°C° 1.8 mm 6 mps 737 mmHg 94%
14:00 +11°C° 1.8 mm 6 mps 737 mmHg 94%
15:00 +13°C° 0.2 mm 6 mps 737 mmHg 90%
16:00 +13°C° 0.2 mm 6 mps 737 mmHg 86%
17:00 +14°C° 0.2 mm 6 mps 738 mmHg 81%
18:00 +13°C° 0 mm 5 mps 738 mmHg 84%
19:00 +12°C° 0 mm 4 mps 738 mmHg 87%
20:00 +13°C° 0 mm 2 mps 738 mmHg 90%
21:00 +11°C° 0 mm 3 mps 738 mmHg 91%
22:00 +11°C° 0 mm 3 mps 738 mmHg 93%
23:00 +10°C° 0 mm 3 mps 738 mmHg 94%
Show more